[[{"header":{"parameterUnit":"m.s-1","parameterCategory":1,"la1":30.2992,"la2":30.254,"lo1":-89.0895,"lo2":-89.0443,"dy":0.0025,"dx":0.0025,"nx":19,"ny":19,"refTime":"2026-03-23T03:00:00:Z","depth":0,"parameterNumber":2,"parameterNumberName":"U-component_of_WINDS"},"data":[0,0,0,0.4044,0.4047,0.4185,0.4186,0.434,0.4341,0,0,0,0,0,0,0,0,0,0,0,0.3984,0.3985,0.4044,0.4047,0.4185,0.4186,0.434,0.4341,0,0,0,0,0,0,0,0,0,0,0,0.3984,0.3984,0.3985,0.4047,0.4185,0.4186,0.434,0.4245,0,0,0,0,0,0,0,0,0,0,0.4114,0.4039,0.3984,0.3985,0.4048,0.4185,0.4186,0.424,0.4251,0.4266,0,0.4271,0,0.4308,0.435,0.435,0,0,0,0.4062,0.4031,0.4085,0.3985,0.4049,0.4185,0.4127,0.4246,0.4258,0.4279,0.4273,0.428,0.4311,0.4351,0.4351,0.4383,0.4383,0,0,0.4054,0.4,0.4077,0.4091,0.4063,0.4123,0.4131,0.4254,0.4245,0.4274,0.4284,0.4313,0.4352,0.4353,0.4384,0.4383,0,0,0,0.4022,0.3994,0.4046,0.4084,0.411,0.4126,0.4136,0.424,0.4261,0.4286,0.4315,0.4352,0.4354,0.4385,0.4384,0.4303,0,0,0,0.4018,0.3975,0.4041,0.401,0.4107,0.4176,0.4119,0.4253,0.4268,0.4314,0.4352,0.4355,0.4385,0.4384,0.4307,0.4275,0,0,0,0.3982,0.3971,0.3984,0.4006,0.4064,0.4175,0.4204,0.4257,0.4285,0.435,0.4355,0.4386,0.4384,0.431,0.428,0.4269,0,0,0,0.3928,0.391,0.3982,0.3975,0.4062,0.4122,0.4204,0.4252,0.4298,0.4353,0.4385,0.4384,0.4311,0.4283,0.4272,0.425,0.4235,0,0,0.3876,0.3902,0.3903,0.3971,0.4004,0.4106,0.413,0.4225,0.4283,0.4348,0.4349,0.4306,0.428,0.4269,0.4169,0.4156,0,0,0,0.3868,0.3868,0.3889,0.3928,0.3999,0.4059,0.4156,0.4193,0.425,0.4303,0.4299,0.4286,0.4282,0.4275,0.4264,0.4266,0.4377,0.4377,0.4378,0.3716,0.379,0.3797,0.3888,0.3926,0.4028,0.4068,0.4135,0.4198,0.4196,0.4216,0.4145,0.4134,0.4126,0.4127,0.4209,0.4209,0.4209,0.4208,0.3649,0.3661,0.3746,0.3783,0.3863,0.3897,0.3996,0.4041,0.4087,0.4135,0.4136,0.4183,0.411,0.4115,0.4203,0.4204,0.4205,0.4205,0.4206,0.3558,0.3577,0.362,0.3689,0.3734,0.3829,0.387,0.3941,0.401,0.4009,0.4041,0.4042,0.4055,0.4019,0.4019,0.4018,0.4018,0.4018,0.4018,0.3448,0.35,0.3523,0.3599,0.3636,0.3695,0.3799,0.384,0.3903,0.3953,0.3954,0.4019,0.4088,0.4105,0.4015,0.4015,0.4016,0.4016,0.4016,0.3354,0.3387,0.3423,0.346,0.3558,0.3601,0.3692,0.3769,0.3813,0.3832,0.3899,0.3937,0.397,0.3979,0.3994,0.388,0.388,0.388,0.388,0.3279,0.3302,0.3357,0.3413,0.3476,0.3563,0.3607,0.369,0.3782,0.3815,0.3842,0.3868,0.3873,0.3904,0.3914,0.3929,0.3801,0.3801,0.3801,0.3227,0.326,0.3281,0.3368,0.3451,0.3522,0.3567,0.3632,0.3744,0.38,0.3844,0.3847,0.3889,0.3898,0.3954,0.3969,0.3998,0,0]},{"header":{"parameterUnit":"m.s-1","parameterCategory":1,"la1":30.2992,"la2":30.254,"lo1":-89.0895,"lo2":-89.0443,"dy":0.0025,"dx":0.0025,"nx":19,"ny":19,"refTime":"2026-03-23T03:00:00:Z","depth":0,"parameterNumber":3,"parameterNumberName":"V-component_of_WINDS"},"data":[0,0,0,4.7175,4.7175,4.7159,4.7159,4.7138,4.7138,0,0,0,0,0,0,0,0,0,0,0,4.7181,4.7181,4.7175,4.7175,4.7159,4.7159,4.7138,4.7138,0,0,0,0,0,0,0,0,0,0,0,4.7181,4.7181,4.7181,4.7175,4.7159,4.7159,4.7139,4.715,0,0,0,0,0,0,0,0,0,0,4.7165,4.7172,4.7181,4.7181,4.7175,4.7159,4.7159,4.715,4.7149,4.7146,0,4.7145,0,4.7142,4.7137,4.7137,0,0,0,4.7173,4.7173,4.7168,4.7181,4.7175,4.7159,4.7166,4.715,4.7148,4.7144,4.7145,4.7144,4.7141,4.7137,4.7137,4.7133,4.7133,0,0,4.7173,4.7178,4.717,4.7168,4.7173,4.7166,4.7165,4.7149,4.7149,4.7145,4.7144,4.7141,4.7137,4.7137,4.7133,4.7133,0,0,0,4.7177,4.7179,4.7174,4.7169,4.7166,4.7166,4.7165,4.7149,4.7148,4.7143,4.7141,4.7137,4.7137,4.7133,4.7133,4.7144,0,0,0,4.7178,4.7181,4.7175,4.7177,4.7167,4.7158,4.7166,4.7149,4.7147,4.7141,4.7137,4.7136,4.7132,4.7133,4.7143,4.7147,0,0,0,4.7181,4.7181,4.718,4.7177,4.7172,4.7158,4.7155,4.7148,4.7146,4.7137,4.7136,4.7132,4.7133,4.7143,4.7146,4.715,0,0,0,4.7186,4.7186,4.718,4.718,4.7172,4.7166,4.7156,4.715,4.7144,4.7137,4.7132,4.7133,4.7143,4.7146,4.7149,4.7154,4.7157,0,0,4.7189,4.7186,4.7186,4.7181,4.7178,4.7168,4.7166,4.7153,4.7146,4.7137,4.7137,4.7143,4.7146,4.715,4.7167,4.7169,0,0,0,4.7189,4.7189,4.7187,4.7184,4.7178,4.7173,4.7162,4.7158,4.7151,4.7143,4.7145,4.7146,4.7148,4.715,4.7152,4.7154,4.7134,4.7134,4.7134,4.7197,4.7193,4.7194,4.7188,4.7185,4.7177,4.7173,4.7166,4.7158,4.7159,4.7156,4.7168,4.717,4.7172,4.7174,4.7158,4.7158,4.7158,4.7158,4.7203,4.7203,4.7199,4.7197,4.7192,4.719,4.7182,4.7178,4.7175,4.7168,4.7169,4.7163,4.7174,4.7176,4.7158,4.7158,4.7158,4.7158,4.7158,4.7208,4.7208,4.7207,4.7205,4.7204,4.7198,4.7197,4.7191,4.7185,4.7186,4.7185,4.7184,4.7185,4.7186,4.7186,4.7186,4.7186,4.7186,4.7186,4.7215,4.7214,4.7215,4.7213,4.7213,4.7211,4.7206,4.7204,4.7201,4.7197,4.7197,4.7191,4.7176,4.7174,4.7187,4.7187,4.7187,4.7187,4.7187,4.7222,4.7221,4.7224,4.7224,4.7223,4.7225,4.7219,4.7218,4.7216,4.7216,4.7211,4.7201,4.7197,4.7196,4.7193,4.7211,4.7211,4.7211,4.7211,4.7228,4.7227,4.7231,4.7233,4.7233,4.7231,4.7234,4.7231,4.7227,4.7226,4.7222,4.7219,4.7218,4.7214,4.7212,4.721,4.7232,4.7232,4.7232,4.7233,4.7233,4.7237,4.7238,4.7238,4.7238,4.7242,4.7243,4.7238,4.7233,4.7225,4.7224,4.7218,4.7216,4.721,4.7207,4.7203,0,0]}]]